{"data":{"norad_id":61563,"epoch":"2026-05-25T03:24:33.976224Z","epoch_age_seconds":65969,"freshness":"FRESH","line1":"1 61563U 24185M   26145.14205991  .00000144  00000+0  20809-3 0  9990","line2":"2 61563  88.9832  63.9966 0005607 294.4684  65.5881 13.50045972 90115","mean_motion":13.50045972,"eccentricity":0.0005607,"inclination_deg":88.9832,"raan_deg":63.9966,"arg_perigee_deg":294.4684,"mean_anomaly_deg":65.5881,"bstar":0.00020809,"rev_number":9011,"period_min":106.6630344348,"perigee_km":1067.9120456189,"apogee_km":1076.2667294899,"semimajor_km":7450.2263875544,"source":"CELESTRAK","updated_at":"2026-05-25T13:38:02.415699Z"}}